ヒル彗星

369P/Hill (2018)

English version
Home page
Updated on August 15, 2020

---------------------------------------------------------------------

・ プロフィール

符号 369P/2018 P1
検出日 2018年8月10日
検出光度 19.0等
検出者 E. Schwab (Egelsbach, Germany), P. Ruiz (European Space Agency's Optical Ground Station, Tenerife, Spain)

・ 写真集

・ 軌道要素

Epoch 2018 Oct. 9.0 TT = JDT 2458400.5
T 2018 Oct. 15.14643 TT                                 MPCW
q   1.9571544            (2000.0)            P               Q
n   0.10712725     Peri.   13.27889     +0.49363911     -0.85965923
a   4.3907233      Node    47.32047     +0.78066246     +0.37135577
e   0.5542524      Incl.   10.30842     +0.38325782     +0.35082887
P   9.20
From 370 observations 2010 Jan. 6-2019 Apr. 1, mean residual 0".6.

・ 星図

・ 光度変化

        m1 = 14.0 + 5 logΔ + 10.0 log r

---------------------------------------------------------------------

軌道要素はM.P.E.C. 2019-J142に掲載されたものです。
星図はステラナビゲータ Ver.10 (アストロアーツ) で作成したものです。
光度グラフはComet for Windowsで作成したものです。

---------------------------------------------------------------------

Copyright(C) Seiichi Yoshida (comet@aerith.net). All rights reserved.